sat.trackr.live / text

‹ back to catalog

YAOGAN-43 01J

NORAD 60466 · 2024-148J

PAYLOAD ACTIVE UNKNOWN

§ Identity

Operator
Country
PRC
Launch date
2024-08-16
Launch site
XICLF
Launch vehicle
Mass (kg)
RCS (m²)

External: N2YO · Heavens-Above · Gunter

§ Orbital elements

Epoch: 2026-09-22T23:02:43.440864Z

Period
93.59 min
Inclination
34.9901°
Eccentricity
0.0005007
Mean motion
15.38655671 rev/d
Perigee alt
446.7 km
Apogee alt
453.5 km
Semi-major
6,828.2 km
B*
2.8094e-4
RAAN
224.9719°
Arg perigee
85.8327°
Mean anomaly
274.2964°
Rev number
11,749

§ Raw data

YAOGAN-43 01J1 60466U 24148J   26265.96022501  .00011005  00000+0  28094-3 0  99992 60466  34.9901 224.9719 0005007  85.8327 274.2964 15.38655671117492

JSON: /api/v1/satellites/60466 · /tle

For live sub-satellite position, see the globe view (requires WebGL).

§ Visibility from observer

Set your observer location to see the next 7 days of passes ≥ 10°. The values pass through the URL so the page stays shareable.

No JS? Fill the form by hand. The geolocation button needs JavaScript.